Content
SEND FEEDBACK

Daily
Averages
Monthly
Summary
United States of America

NAPOOPOO PARK, HAWAII


Home > North America > United States > Hawaii
Elevation: 1380 feet     Latitude: 19 28N     Longitude: 155 53W

WEATHER
 
SELECT A DAY
Number of Records: 173,488;   Date Range: 1/1/95 - 12/17/14
 
SHARE

PRINT THIS DATA

[ ← Previous Day ]
WEATHER ALMANAC - JANUARY 31, 2013
[ Next Day → ]
[ °C ]   °F
Weather ElementAverageHighLow
Temperature74.6 °F79 °F (12:53 pm)68 °F (6:53 am)
Dewpoint65.2 °F68 °F (11:53 am)62.1 °F (5:53 am)
Humidity72.7 %81 % (1:53 am)66 % (9:53 am)
Barometer30.03 in30.07 in (9:53 am)29.98 in (3:53 pm)
Wind Speed6.2 mph9.2 mph (12:53 pm)
Weather ElementAverage
Visibility10 mi
Wind DirectionSE (135.2 °)

Weather ElementTotal
Precipitation---
Cooling Degree Days8.5 (Base 65)
Growing Degree Days23.5 (Base 50)
Averaged from 23 records on January 31, 2013
WEATHER CONDITIONS BREAKOUT
WIND DIRECTION BREAKOUT
WEATHER BY HOUR - JANUARY 31, 2013
[ °C ]   °F
Local TimeTemperatureDewpointHumidityBarometerVisibilityWind DirectionWind SpeedGust SpeedPrecipitationEventsConditions
1:53 AM71.1 °F64.9 °F81 %30.02 in10.0 miESE (110°)5.8 mphPartly Cloudy
2:53 AM71.1 °F63.0 °F75 %30.01 in10.0 miENE (70°)3.5 mphMostly Cloudy
3:53 AM71.1 °F63.0 °F75 %30.00 in10.0 miCalmOvercast
4:53 AM70.0 °F63.0 °F78 %30.00 in10.0 miENE (70°)3.5 mphScattered Clouds
5:53 AM69.1 °F62.1 °F78 %30.01 in10.0 miENE (70°)4.6 mphClear
6:53 AM68.0 °F62.1 °F81 %30.03 in10.0 miEast (80°)3.5 mphClear
7:53 AM71.1 °F64.0 °F78 %30.05 in10.0 miESE (110°)6.9 mphClear
8:53 AM75.9 °F66.0 °F71 %30.06 in10.0 miSSE (150°)4.6 mphClear
9:53 AM78.1 °F66.0 °F66 %30.07 in10.0 miSSW (200°)5.8 mphPartly Cloudy
10:53 AM78.1 °F66.9 °F68 %30.06 in10.0 miSSW (200°)6.9 mphClear
11:53 AM78.1 °F68.0 °F71 %30.05 in10.0 miSSW (210°)8.1 mphPartly Cloudy
12:53 PM79.0 °F68.0 °F69 %30.03 in10.0 miSW (230°)9.2 mphClear
1:53 PM79.0 °F68.0 °F69 %30.00 in10.0 miWSW (240°)8.1 mphClear
2:53 PM79.0 °F66.9 °F66 %29.99 in10.0 miWSW (250°)9.2 mphClear
3:53 PM78.1 °F66.9 °F68 %29.98 in10.0 miSW (230°)4.6 mphMostly Cloudy
4:53 PM78.1 °F66.9 °F68 %29.99 in10.0 miSouth (190°)8.1 mphMostly Cloudy
5:53 PM78.1 °F66.0 °F66 %30.00 in10.0 miSSE (160°)8.1 mphMostly Cloudy
6:53 PM75.9 °F66.0 °F71 %30.02 in10.0 miESE (110°)6.9 mphPartly Cloudy
7:53 PM75.0 °F66.0 °F73 %30.03 in10.0 miESE (120°)9.2 mphClear
8:53 PM73.0 °F62.1 °F68 %30.04 in10.0 miNorth (10°)5.8 mphClear
9:53 PM73.0 °F64.9 °F76 %30.05 in10.0 miSE (130°)9.2 mphPartly Cloudy
10:53 PM73.0 °F66.0 °F79 %30.05 in10.0 miESE (120°)8.1 mphPartly Cloudy
11:53 PM72.0 °F64.0 °F76 %30.04 in10.0 miNE (50°)3.5 mphClear
Hourly data recorded from PHKO, located miles away from Napoopoo Park, Hawaii







STORIES FROM OUR PARTNERS